User: anonymous   Login
Location: Baix
(44.7118°N, 4.7648°E)
Time: 19:10:39
(UTC+00:00)
Language:

Transit 4A - Orbit

View from above orbital plane
View from above orbital plane
View from above satellite
View from above satellite

Ground track
Ground track

The orbit data is extracted from the following two-line orbital elements,

1 00116U 61015A   21169.38667891 -.00000064  00000-0  94915-5 0  9992
2 00116  66.8108  33.6337 0069246 114.6537 246.1775 13.91791967 42739
Epoch (UTC): 18 June 2021 09:16:49
Eccentricity: 0.0069246
inclination: 66.8108°
perigee height: 872 km
apogee height: 973 km
right ascension of ascending node: 33.6337°
argument of perigee: 114.6537°
revolutions per day: 13.91791967
mean anomaly at epoch: 246.1775°
orbit number at epoch: 4273

The dashed part of the orbit path shows where the satellite is in the earth's shadow,  

DLR